Location: *
(2.5500°S, 65.9667°W)
Time: 11:02:29
(UTC+00:00)

deb Chang Zheng 4 - Pass Details

Date: 26 October 2021
Orbit: 595 x 616 km, 98.6° (Epoch: 28 November)

Event Time Altitude Azimuth Distance (km) Brightness Sun altitude
Rises 22:43:04 0° 162° (SSE) 2,837 6.9 -8.0°
Reaches altitude 10° 22:45:16 10° 159° (SSE) 1,931 6.0 -8.6°
Maximum altitude 22:49:24 63° 78° (ENE) 666 3.4 -9.6°
Drops below altitude 10° 22:53:31 10° 357° (N) 1,921 6.0 -10.6°
Sets 22:55:41 0° 354° (N) 2,821 6.9 -11.1°
